GFSGBSN_sfc_wetblb_021.txt.gz
Wetbulb
53.77 53.58 53.33 52.89 52.75 52.43 52.42 52.68 53.16 53.15 53.28 53.32 53.45 53.68 53.64 53.57 53.62 53.72 53.74 53.91 53.97 54.05 53.84 53.74 53.45 52.98 49.05 40.85 41.17 47.40 55.71 53.08 49.79 55.32 52.56 50.43 46.24 43.58 39.43 41.33 44.22 45.37 49.64 52.40 53.43 52.62 52.25
52.58 52.57 52.56 52.70 52.64 52.31 52.30 52.38 52.53 53.30 53.50 53.48 53.36 52.95 53.11 53.14 53.07 53.45 54.02 53.81 53.74 53.62 53.69 53.41 53.33 52.82 44.81 35.59 47.43 48.93 48.79 48.52 47.15 45.26 43.93 49.38 44.91 45.46 42.41 41.70 43.33 43.68 44.60 46.54 47.73 48.26 50.48
52.07 52.63 52.70 52.85 53.18 52.76 52.55 52.00 52.06 51.97 51.84 51.71 52.91 52.84 52.79 52.94 53.11 52.99 53.68 53.54 53.47 53.29 53.66 53.95 53.58 50.53 43.77 40.51 49.11 48.71 46.97 45.10 46.21 45.85 43.06 45.36 49.69 46.04 43.53 40.94 45.07 44.66 41.33 43.95 44.84 44.20 45.33
52.30 52.72 52.92 52.21 52.27 51.95 51.99 51.67 51.46 51.54 51.57 51.84 52.34 52.56 52.34 52.57 52.44 52.86 53.62 53.50 53.44 53.86 54.60 54.65 53.14 48.63 40.63 49.58 48.86 48.08 48.09 46.64 47.74 47.08 46.11 46.99 46.43 42.72 41.22 44.32 43.88 40.52 40.42 37.58 44.22 45.85 46.62
51.60 52.08 52.10 51.62 51.26 50.95 50.64 50.85 51.00 51.04 51.46 51.52 51.77 52.38 51.84 52.08 52.15 52.80 53.49 53.44 53.60 54.73 54.75 54.36 48.19 44.70 39.93 51.95 48.25 50.74 49.40 45.70 46.31 46.77 46.42 49.00 44.33 40.39 40.61 37.85 35.57 37.46 33.60 35.18 39.15 45.38 45.76
50.86 50.75 51.05 50.92 50.62 50.15 50.38 50.51 50.46 50.58 50.88 51.09 51.52 52.02 51.82 51.86 52.46 52.92 52.68 52.66 52.83 52.07 53.13 52.86 50.82 41.87 43.19 41.28 46.09 48.71 50.05 48.93 44.81 44.52 43.19 42.10 39.07 35.55 33.83 34.22 31.00 33.59 34.73 37.55 37.57 42.42 44.54
50.90 51.22 50.88 50.98 50.77 50.42 50.49 50.36 50.38 50.53 51.18 51.25 51.31 51.56 51.95 52.47 52.63 52.36 50.43 45.00 41.26 39.03 41.54 38.95 40.69 40.61 42.24 45.99 48.50 45.95 48.19 45.74 45.11 41.97 35.35 37.79 32.66 31.79 35.65 37.47 37.87 37.62 36.35 36.05 40.08 44.05 42.49
50.72 50.76 50.70 50.82 50.66 50.55 50.49 50.45 50.72 50.64 50.81 51.02 51.17 51.15 51.48 52.47 52.37 52.20 46.21 41.32 42.77 42.47 34.82 43.11 43.23 43.95 46.93 47.53 41.41 44.40 48.10 40.29 38.77 33.46 36.60 33.75 31.67 36.18 38.95 38.43 37.50 36.45 34.77 34.63 39.01 42.62 41.14
50.27 50.29 50.29 50.49 50.47 50.33 50.45 50.49 50.45 50.62 51.08 51.17 51.10 50.91 51.37 51.93 51.53 46.22 42.76 44.48 46.89 43.36 33.83 38.57 43.19 43.51 44.05 44.00 40.41 40.79 44.19 41.33 37.03 34.16 33.59 30.85 34.51 39.82 38.29 36.23 35.38 34.68 34.06 34.87 35.47 40.23 41.90
49.78 50.00 50.08 50.17 50.39 50.57 50.50 50.43 50.52 50.62 50.58 50.86 50.90 51.27 51.44 50.85 45.51 43.80 42.57 47.55 45.61 42.95 26.67 34.54 39.81 43.67 44.87 44.26 39.67 46.72 46.90 41.98 37.36 33.07 33.93 32.50 36.78 36.01 34.34 34.07 36.28 31.25 37.89 38.83 38.82 35.99 30.97
49.55 49.70 49.90 49.88 50.20 50.16 50.31 50.53 50.57 50.46 50.50 50.66 50.73 50.89 51.08 50.56 43.41 42.32 45.79 45.53 45.76 39.48 17.60 37.65 39.65 47.39 44.80 40.99 42.71 43.37 48.27 42.77 35.29 35.50 33.97 31.24 33.63 33.31 33.30 34.63 36.89 33.86 39.67 38.02 37.44 34.89 32.60
49.12 49.35 49.43 49.70 49.97 49.79 50.46 50.52 50.14 50.38 50.91 51.00 51.04 50.68 50.35 46.09 42.95 45.86 46.92 44.55 41.29 26.22 15.73 33.14 39.28 37.41 36.71 39.20 40.93 43.60 42.81 46.03 43.53 37.72 35.97 34.41 39.33 36.94 35.73 38.14 38.33 39.12 36.74 36.40 35.88 32.80 25.91
49.10 49.18 49.36 49.42 49.28 49.51 50.16 50.29 50.00 50.31 50.72 50.99 50.81 50.54 48.98 48.05 41.34 45.26 43.70 39.21 25.24 19.39 34.34 32.00 32.92 36.59 34.80 34.80 36.59 39.13 37.55 37.11 33.58 29.86 28.70 34.16 35.35 38.41 39.87 34.45 37.50 35.91 29.11 22.43 21.87 23.21 25.13
49.30 49.36 49.32 49.43 49.48 49.83 49.99 50.00 50.29 50.22 50.47 50.66 50.27 49.40 46.85 47.98 45.76 44.99 39.47 31.10 20.59 29.24 30.95 37.15 35.98 35.05 31.51 34.41 34.26 36.59 35.39 32.96 38.00 35.93 31.66 29.33 27.00 36.08 41.92 37.33 32.55 31.12 30.31 22.90 20.39 22.32 25.82
48.87 49.05 49.32 49.51 49.60 50.16 49.82 49.77 50.01 49.95 50.05 49.81 48.79 42.60 42.29 45.66 47.35 42.91 34.33 22.68 22.88 31.33 35.31 33.97 34.22 30.09 29.72 33.43 34.23 33.77 33.07 33.45 36.33 36.74 30.67 29.38 28.90 39.53 40.08 40.65 37.82 32.25 27.31 33.28 26.74 29.40 24.87
49.51 49.21 49.29 49.25 49.87 50.15 50.06 49.87 50.22 50.12 50.04 49.67 41.19 40.63 42.45 46.68 45.58 39.79 31.29 28.73 31.02 37.49 37.65 36.68 28.79 32.41 26.93 29.56 30.11 30.49 31.66 36.98 35.98 38.22 37.49 32.92 26.31 36.13 38.55 39.22 39.15 34.71 36.71 27.14 24.97 21.55 21.17
50.52 50.56 50.49 50.66 50.37 50.25 50.19 50.08 50.19 50.02 49.46 48.16 40.18 38.67 44.34 46.37 44.04 35.88 24.82 28.53 34.20 39.63 39.24 35.65 32.30 30.53 30.98 30.48 30.86 29.85 32.39 36.47 38.81 37.60 36.88 32.74 29.25 30.43 35.67 33.15 30.30 32.14 30.07 30.68 29.38 27.64 22.94
50.28 50.17 50.35 50.55 50.87 50.79 50.37 49.97 49.82 49.78 48.71 45.69 37.05 33.90 44.88 43.72 33.39 30.31 26.18 33.81 39.08 37.87 40.40 38.03 36.43 34.11 32.05 32.33 30.26 30.56 31.75 35.49 40.14 38.14 32.22 34.48 30.51 26.84 29.53 35.65 38.18 36.91 32.57 31.63 24.62 25.14 27.74
50.15 50.07 50.38 50.27 50.72 50.15 50.49 50.04 49.85 49.65 48.94 44.91 37.47 36.27 44.26 42.99 25.50 24.44 31.77 35.32 38.14 37.23 37.55 37.33 35.60 36.05 35.02 31.45 29.17 32.40 34.03 39.10 39.15 36.49 33.01 33.87 27.51 23.27 24.70 30.85 35.45 32.53 34.76 34.25 33.09 30.64 27.00
49.92 49.87 50.18 50.50 50.68 50.14 50.00 50.22 49.85 49.65 49.14 45.17 39.17 31.99 34.77 35.39 34.45 29.86 31.47 32.98 33.98 39.89 38.52 38.70 36.24 36.42 34.20 32.52 33.49 30.97 32.48 37.35 39.05 38.40 42.33 38.58 29.04 26.23 21.57 26.52 31.53 30.09 34.42 35.38 33.04 26.73 29.52
50.12 50.10 50.30 50.74 51.42 50.40 49.82 50.16 50.45 49.17 49.08 42.88 36.81 32.09 34.42 28.84 31.47 33.69 33.05 33.73 33.37 33.80 38.92 38.37 35.05 35.01 34.50 31.60 31.51 30.84 32.98 34.99 37.98 40.46 38.06 35.13 27.37 31.38 31.09 32.07 32.56 32.48 32.79 33.76 32.46 33.36 29.74
50.63 50.25 50.06 50.38 50.58 50.61 50.04 50.46 50.79 49.46 48.34 40.05 33.77 32.97 38.95 33.80 34.61 32.80 33.25 34.88 34.84 35.72 35.97 34.45 34.91 35.98 35.52 32.91 33.25 31.56 34.34 34.62 33.77 34.95 36.30 37.08 28.01 32.36 29.66 33.13 33.41 31.15 33.74 34.03 35.08 35.11 34.85
50.94 50.80 50.42 50.20 49.99 50.05 50.51 51.04 50.85 50.35 45.79 36.34 37.13 37.67 37.91 34.34 33.73 34.37 34.31 34.92 35.17 37.22 37.75 39.22 37.89 35.91 34.12 35.68 38.86 38.50 39.12 38.46 38.18 35.03 34.77 34.01 32.11 29.36 25.00 31.74 31.32 29.99 33.14 33.83 35.40 36.67 36.17
50.94 51.18 50.89 50.23 49.74 49.33 49.69 50.74 50.79 50.84 47.17 43.81 39.59 38.75 35.09 27.53 31.84 32.22 35.36 36.05 36.09 36.05 35.74 38.21 39.51 37.11 38.97 42.15 40.34 39.48 38.26 37.63 37.36 37.10 37.87 33.16 31.07 30.73 26.68 29.97 21.63 33.00 41.86 39.76 36.78 37.54 38.90
50.96 51.22 50.98 50.47 49.70 49.48 49.41 50.04 50.66 50.85 50.25 44.29 43.25 40.58 36.12 28.83 33.44 33.73 35.80 35.45 37.23 37.49 35.75 37.93 38.93 41.15 41.09 36.84 33.02 31.64 33.36 35.78 35.54 38.30 37.12 36.73 33.39 29.52 26.12 25.84 31.48 34.55 39.04 37.98 37.38 36.22 39.85
50.54 50.44 50.40 50.06 48.76 49.08 49.40 49.45 50.21 50.53 50.72 45.22 43.60 43.37 39.30 35.13 29.72 37.36 34.21 36.41 35.24 35.20 36.81 37.94 40.15 40.24 36.56 32.02 28.95 27.48 25.97 31.86 30.79 34.41 38.78 38.81 35.55 30.48 29.57 25.30 24.25 34.63 38.34 41.81 42.13 34.18 48.91
50.05 49.40 49.12 48.31 47.54 48.04 48.66 49.24 49.77 49.93 50.36 48.40 43.41 42.71 40.91 35.08 34.40 34.87 33.51 34.08 37.60 38.70 35.85 35.69 37.38 35.49 34.72 29.22 23.58 28.20 28.27 35.45 29.60 30.59 31.91 32.22 32.41 28.52 28.02 27.08 31.59 37.39 38.89 41.51 33.77 37.53 46.68
49.15 48.68 47.74 47.61 47.08 47.79 48.39 48.87 49.24 49.69 50.08 49.03 43.78 44.04 41.42 36.26 36.90 37.38 37.81 36.03 37.29 38.63 34.93 39.09 34.78 35.27 32.32 28.82 29.05 29.61 29.48 33.83 33.14 34.34 31.75 30.99 29.68 30.86 31.62 29.07 26.72 40.26 37.67 38.51 43.32 47.05 48.07
48.13 48.10 47.46 48.02 48.24 47.59 48.00 48.82 49.01 49.35 49.78 50.08 43.56 44.74 45.16 40.00 37.42 39.95 40.66 42.96 43.25 42.48 40.00 40.94 38.18 35.31 36.55 32.67 31.71 34.01 31.74 34.39 33.15 29.08 36.10 30.04 33.15 31.48 32.28 31.90 37.21 38.15 38.74 44.97 48.03 46.28 47.10

GFSGBSN_sfc_wetblb_024.txt.gz
Wetbulb
52.95 53.31 53.23 53.46 52.80 52.14 51.81 51.75 51.72 51.74 51.61 51.70 52.41 52.96 53.11 52.98 53.02 53.08 53.43 53.72 53.86 53.90 53.76 53.35 53.31 53.30 47.08 38.22 37.65 47.10 54.57 51.76 48.44 47.07 51.42 48.62 44.09 44.55 38.83 40.41 44.75 47.36 48.91 52.42 54.03 53.78 53.51
52.96 53.32 53.05 52.45 52.08 51.98 51.79 51.86 51.38 51.15 51.40 51.94 52.10 52.16 52.28 52.59 52.78 52.82 53.24 53.83 53.72 53.74 53.48 53.85 53.47 52.97 44.34 33.42 45.74 48.64 48.34 47.90 45.37 43.28 42.21 46.96 45.44 45.09 41.78 40.19 42.91 43.02 44.23 46.31 48.27 49.52 49.72
52.78 52.28 52.34 51.99 51.26 51.23 50.97 51.13 51.11 51.11 51.30 51.58 51.66 51.63 52.05 52.23 52.49 52.78 53.42 53.74 53.84 53.89 54.74 54.24 53.54 51.18 43.58 39.14 47.98 49.26 47.96 46.27 46.05 46.18 41.88 43.45 47.01 45.32 42.03 39.52 43.43 43.09 39.85 41.42 42.90 43.27 45.38
51.21 51.36 51.41 51.14 51.02 50.84 50.58 50.89 50.91 50.97 51.17 51.28 51.32 51.65 51.88 52.02 52.36 52.80 53.17 53.58 53.77 54.36 55.44 54.25 53.76 48.33 38.60 48.17 48.82 48.14 47.02 45.81 47.37 46.80 45.32 45.12 44.34 40.71 41.46 42.73 41.74 39.86 39.49 36.33 43.48 43.47 45.82
50.92 51.31 50.98 51.09 51.02 50.70 50.57 50.74 50.78 51.04 51.31 51.63 51.63 51.79 51.71 51.94 52.38 52.87 53.08 53.26 53.78 54.21 54.77 54.04 46.43 43.65 38.55 50.56 47.07 49.91 48.46 45.70 46.89 46.00 45.12 47.56 42.96 39.39 39.02 36.38 33.75 35.40 34.46 33.32 38.12 44.01 43.93
51.03 51.11 51.11 51.02 50.89 50.68 50.57 50.95 50.99 51.04 51.18 51.29 51.44 52.00 51.63 51.94 52.40 52.76 52.54 52.97 52.74 52.14 52.88 52.16 50.20 40.01 41.10 41.05 45.15 47.81 49.05 47.69 44.88 43.34 41.18 40.14 37.97 34.49 32.91 33.85 29.13 31.73 31.36 35.80 35.83 41.11 43.15
50.76 50.76 50.96 50.93 50.97 50.29 50.59 50.74 50.93 50.87 50.83 50.78 51.08 51.46 51.67 51.92 52.11 52.19 49.39 43.55 40.24 38.89 40.60 37.68 39.50 39.63 41.21 44.84 48.11 45.94 47.87 45.11 43.40 40.13 33.12 36.03 31.13 30.01 34.56 36.66 36.35 35.48 34.54 33.65 37.82 41.95 39.52
50.23 50.49 50.59 50.82 50.42 50.30 50.60 50.58 50.74 50.78 50.68 50.98 51.08 51.04 51.26 51.57 51.76 51.68 44.10 40.76 41.90 42.02 35.08 42.44 42.08 41.98 44.61 44.78 41.24 43.77 47.27 39.19 38.50 32.66 35.14 32.08 29.85 34.65 37.82 37.10 36.02 34.49 32.30 31.87 37.19 40.70 39.25
49.80 50.06 50.28 50.38 50.41 50.39 50.62 50.62 50.56 50.57 50.27 50.43 51.02 50.34 50.57 51.14 51.37 45.60 41.94 43.57 44.68 41.99 33.03 37.59 41.08 41.99 42.95 42.53 39.73 40.29 42.97 40.45 36.55 33.03 32.73 29.31 33.15 38.47 36.93 34.57 33.90 32.77 31.87 33.08 33.81 38.70 40.38
49.55 49.63 49.68 49.77 50.16 50.07 50.25 50.37 50.37 50.49 50.47 50.58 51.21 50.38 50.29 50.31 44.39 42.37 41.98 45.70 45.00 42.32 25.98 32.74 38.47 41.67 43.17 42.30 38.60 46.24 46.31 41.23 37.35 32.29 33.34 31.26 35.57 35.09 33.15 33.41 34.76 28.99 36.50 36.69 36.65 34.33 28.82
49.50 49.44 49.49 49.47 49.55 49.47 49.64 49.86 50.13 50.27 50.14 50.58 50.58 50.43 50.10 49.68 42.21 41.25 44.09 44.81 42.91 38.13 16.32 36.31 38.47 44.94 43.63 37.84 40.39 42.87 47.26 41.33 35.02 34.77 34.88 30.60 32.29 31.90 31.14 32.69 35.54 32.36 37.99 35.73 35.13 31.97 29.38
49.80 49.80 49.66 49.66 49.79 49.58 50.24 50.05 49.80 50.09 50.45 50.21 50.30 50.30 49.99 45.75 43.58 44.47 45.41 42.77 40.01 25.80 15.50 32.14 38.32 36.66 35.98 37.67 38.68 42.29 42.32 44.25 43.20 36.99 35.79 33.96 37.82 36.13 34.25 36.54 36.72 37.71 35.00 34.10 32.77 29.78 23.36
49.27 49.55 49.60 49.77 50.03 50.24 50.45 50.43 50.05 50.08 50.30 50.61 50.49 50.33 48.10 47.18 40.53 43.83 42.39 37.01 24.44 17.89 32.80 30.99 32.20 35.85 34.33 32.88 34.90 37.87 36.03 36.09 33.32 29.39 28.82 32.65 33.19 37.10 38.32 32.86 35.35 33.73 27.55 20.74 19.79 20.72 22.84
50.12 49.84 49.84 49.93 50.15 50.43 50.43 50.39 50.39 50.11 50.07 50.18 49.95 47.59 47.41 47.19 44.82 44.35 37.70 30.09 20.05 28.19 29.77 36.27 35.20 34.52 30.15 32.68 32.61 34.76 33.08 32.65 37.62 35.80 31.23 28.58 24.28 34.41 39.53 34.23 30.76 30.38 28.56 21.25 19.39 20.47 23.05
50.88 50.74 51.17 51.22 51.16 51.13 50.75 50.34 50.07 49.87 49.71 49.06 47.84 42.56 42.10 44.06 46.35 41.10 33.62 22.32 22.25 28.80 34.82 33.37 33.68 29.60 28.79 32.09 32.08 31.45 29.82 32.09 35.83 36.40 29.77 29.54 28.87 38.47 39.13 39.25 36.64 30.55 26.81 31.89 25.07 26.38 22.66
50.78 50.51 50.58 50.58 50.56 50.71 50.60 50.79 50.38 50.22 49.72 49.14 40.36 40.08 41.90 45.54 43.85 38.77 30.99 28.87 29.08 36.12 37.07 35.65 28.28 31.07 26.00 28.60 28.77 28.17 29.10 35.24 35.18 38.34 37.23 32.23 26.18 36.24 38.68 39.36 40.13 33.20 34.42 25.25 23.15 19.88 19.89
50.39 50.35 50.58 50.40 50.48 50.46 50.66 50.49 50.81 50.14 49.45 48.36 38.81 37.64 43.40 44.48 42.68 35.07 24.74 27.90 33.05 38.46 38.65 34.91 32.12 31.04 30.36 29.55 29.38 28.28 29.90 35.08 37.89 36.52 36.45 33.07 29.86 30.42 35.02 31.68 29.54 32.86 28.24 28.57 26.61 24.90 22.04
50.70 50.42 50.15 50.52 50.39 50.33 50.26 49.84 50.21 50.01 48.59 45.81 36.43 33.33 43.56 42.20 32.20 27.63 25.13 32.17 38.31 36.99 40.46 38.13 36.26 33.96 31.27 31.40 29.64 29.31 29.63 33.87 38.81 36.83 31.78 34.91 30.25 26.27 29.03 34.51 36.65 33.75 30.91 29.85 24.00 23.87 25.32
50.20 50.28 50.24 50.96 50.32 50.27 50.59 50.45 49.66 50.26 48.81 45.52 38.04 36.83 42.79 40.27 23.70 23.43 30.94 34.17 36.31 36.07 36.31 36.83 35.20 36.21 35.06 31.07 28.51 31.96 32.99 38.01 37.81 35.72 32.17 33.07 27.52 23.61 24.84 29.65 33.82 30.50 32.47 31.54 30.66 28.78 25.21
50.26 50.54 50.50 50.61 51.08 51.09 50.50 50.64 50.55 50.37 48.99 44.40 39.12 30.28 34.08 34.43 32.95 29.10 31.70 33.68 32.94 38.98 37.43 37.89 35.67 36.11 34.21 33.26 34.51 31.85 31.92 36.70 37.58 37.63 41.99 37.76 27.56 25.08 19.99 25.34 30.06 27.72 31.42 33.27 31.57 25.12 26.18
50.25 51.35 51.36 51.08 50.80 50.73 50.52 50.41 50.98 50.35 48.95 40.73 34.63 30.93 33.84 27.09 28.59 30.31 33.99 34.71 33.29 33.43 38.18 37.36 34.81 35.11 34.97 31.99 31.91 31.76 33.03 34.11 37.40 39.37 36.10 34.70 29.08 28.93 30.36 32.11 31.96 30.60 30.58 31.42 30.01 31.12 28.14
50.13 51.26 51.61 51.59 50.87 50.30 49.93 50.28 50.93 50.62 47.40 38.24 29.73 30.44 33.29 30.18 31.67 30.72 32.49 32.09 33.41 34.98 35.17 33.58 33.62 35.36 36.13 33.30 33.43 31.25 34.17 34.64 34.00 36.70 34.76 33.84 29.84 30.17 28.51 32.03 31.89 29.86 32.05 32.64 32.51 32.62 32.58
50.34 51.25 51.50 51.68 51.13 50.05 49.78 49.92 50.71 50.78 44.87 37.09 37.46 35.12 34.17 31.03 29.00 27.13 28.52 32.94 33.52 35.85 37.68 38.09 37.38 35.86 34.62 36.20 38.80 38.53 38.73 37.99 37.31 36.51 33.77 34.13 29.59 26.64 22.83 30.51 30.47 25.08 30.47 31.48 32.90 34.87 34.05
50.95 51.29 51.44 51.14 50.72 49.57 49.39 49.72 50.16 50.65 47.33 43.73 41.42 39.89 34.86 28.41 28.96 29.41 32.66 33.28 32.15 34.62 34.15 37.36 37.65 36.28 39.38 41.73 39.39 38.20 36.98 36.94 37.26 36.65 38.54 34.83 32.69 29.72 22.18 25.91 15.30 29.48 37.81 39.47 36.31 36.39 37.20
50.83 51.08 50.60 50.01 49.69 48.61 48.61 48.66 49.43 50.18 50.37 44.72 43.61 40.51 36.72 31.90 31.52 31.91 33.38 34.23 34.58 36.10 36.47 37.20 37.99 40.23 38.69 34.72 32.75 30.50 30.62 35.31 36.71 34.34 36.17 37.14 34.13 28.08 22.45 20.17 28.07 32.22 36.93 37.10 36.11 33.51 38.47
50.33 49.73 49.07 48.68 48.12 48.28 48.45 48.59 48.91 49.56 50.15 47.03 44.30 44.47 39.38 34.24 31.05 35.02 31.81 31.88 29.70 33.63 35.50 37.72 39.64 39.41 35.61 29.93 27.25 25.74 26.43 31.48 30.64 33.86 35.65 36.80 36.24 30.32 27.95 21.81 19.55 34.57 38.93 41.27 41.61 31.30 44.77
49.29 48.68 47.78 47.88 47.91 47.84 48.10 48.44 48.91 49.17 49.50 48.58 44.52 44.32 41.06 34.96 36.34 35.04 33.70 30.62 34.45 34.94 34.04 37.76 38.38 35.45 34.43 28.91 26.31 25.32 25.57 34.02 30.03 30.21 31.37 32.29 32.20 27.72 27.61 25.23 28.83 37.96 39.23 39.96 32.34 31.86 46.12
48.06 47.23 47.27 47.54 47.42 47.41 47.67 47.72 49.00 49.29 49.53 48.36 46.00 44.40 41.62 37.21 37.80 39.73 37.83 34.52 33.56 35.70 33.77 35.62 35.62 32.24 31.93 29.07 29.60 28.83 28.06 31.46 32.08 34.12 31.55 30.81 28.76 29.11 30.43 26.23 23.51 38.22 36.76 34.90 41.13 45.53 47.44
47.12 47.13 46.97 47.14 46.96 46.84 47.45 47.47 47.67 48.92 49.57 49.03 43.72 45.44 45.29 39.84 38.61 42.64 42.74 43.18 41.06 39.97 38.08 39.46 38.43 36.96 37.46 33.17 30.86 33.83 30.97 33.26 32.64 28.71 35.29 29.50 31.37 30.42 31.17 31.33 36.71 36.23 34.80 38.86 40.12 39.45 47.79

GFSGBSN_sfc_wetblb_030.txt.gz
Wetbulb
52.34 51.97 51.97 52.04 52.20 51.84 51.90 51.93 51.99 52.02 51.90 52.00 52.36 52.95 53.23 53.06 53.31 53.41 53.97 54.51 54.83 54.92 54.98 54.75 54.97 54.32 53.53 47.53 45.38 50.55 54.71 56.99 54.55 52.89 49.17 48.18 49.71 48.89 46.67 49.12 50.80 51.43 53.24 55.73 56.42 55.76 54.80
52.22 52.30 52.44 52.24 51.94 51.93 51.86 51.97 51.95 51.95 51.74 52.08 51.97 52.28 52.53 52.70 52.97 53.34 53.65 54.32 54.62 54.50 54.85 55.30 55.08 53.97 50.72 42.52 51.67 53.36 54.02 54.18 53.54 52.12 49.85 49.31 49.14 51.24 48.13 47.49 49.05 51.55 51.53 53.13 55.02 55.22 56.37
52.15 52.22 52.19 52.15 52.10 52.03 51.67 51.97 51.93 51.78 51.69 52.05 51.91 51.79 52.23 52.38 52.67 53.22 53.66 54.27 54.29 54.41 55.26 56.21 54.67 54.35 49.14 46.52 53.11 55.48 55.14 53.61 53.78 52.49 49.64 50.30 50.19 47.63 50.32 47.09 49.83 49.70 47.71 50.26 51.72 53.87 53.57
51.88 52.01 52.02 52.04 52.05 51.88 51.77 52.09 52.07 51.93 51.80 51.75 51.61 51.64 52.00 52.27 52.50 53.02 53.66 53.98 53.76 54.80 55.68 55.60 54.93 53.52 47.06 53.02 55.57 54.19 54.39 53.05 53.56 53.79 52.14 52.28 51.66 47.96 47.32 50.79 48.35 45.49 46.54 43.48 49.75 51.31 52.06
51.68 51.60 51.70 51.69 51.71 51.52 51.52 51.56 51.68 51.81 51.94 51.78 51.86 51.45 51.75 52.10 51.96 52.71 53.26 53.37 53.98 54.49 55.33 55.22 53.93 51.25 44.94 53.67 50.20 52.53 53.71 50.70 51.83 52.15 52.00 51.43 49.84 46.08 45.78 43.51 42.90 45.18 40.56 43.17 45.37 51.02 50.19
50.97 51.03 51.15 51.07 51.14 50.95 50.80 51.07 51.05 51.24 51.58 51.62 51.71 51.16 51.09 51.47 51.60 52.18 52.47 53.11 55.02 55.38 55.44 54.78 53.84 47.89 48.27 45.66 50.10 51.48 53.57 52.19 49.35 49.22 47.76 47.04 45.82 42.76 42.08 41.74 36.28 40.04 41.68 43.14 43.57 48.33 49.83
50.83 51.00 51.02 50.98 50.95 50.76 50.88 50.99 51.09 51.22 51.22 51.37 51.30 51.07 51.14 51.20 51.52 51.99 52.87 53.30 50.27 48.80 49.26 46.08 45.40 45.06 46.44 50.15 51.56 49.41 51.60 50.05 48.65 46.74 42.63 45.58 40.93 38.48 40.61 42.08 42.55 42.97 42.71 42.75 45.41 48.56 47.72
51.00 51.12 51.12 51.14 51.24 51.05 51.29 51.14 51.16 51.16 51.09 51.12 50.90 50.65 50.95 51.18 51.54 51.87 53.37 49.00 48.07 49.21 43.58 48.49 47.80 47.52 49.20 49.65 44.39 47.24 51.08 45.58 45.25 41.32 44.16 41.93 38.91 42.55 42.56 41.82 41.01 41.80 40.71 41.75 45.03 47.59 47.72
50.71 50.86 50.88 51.09 51.10 51.67 51.52 51.64 51.65 51.81 51.71 51.55 50.98 50.64 50.78 51.07 51.50 52.96 51.55 49.99 53.83 53.02 44.30 43.76 46.29 45.70 46.35 48.00 43.82 44.52 47.55 46.50 43.51 40.97 41.23 39.45 41.65 43.51 41.03 39.91 38.57 40.12 39.43 40.64 41.50 45.30 47.14
51.83 51.96 52.10 51.80 52.18 52.10 51.79 52.01 52.00 51.86 51.98 51.67 51.15 50.58 50.99 50.75 50.03 53.14 50.75 52.82 54.27 53.05 39.91 39.03 42.09 45.32 46.66 47.10 43.02 47.84 49.16 45.98 43.47 40.10 41.36 40.73 43.56 41.45 40.38 38.49 39.90 36.09 41.82 41.99 41.54 41.31 37.51
51.86 51.92 51.83 52.00 52.34 51.88 51.23 51.32 51.36 51.74 52.24 51.75 51.28 50.75 50.92 49.80 51.70 51.63 51.61 54.71 53.95 50.38 29.15 39.60 41.67 49.10 47.29 43.22 43.40 43.66 49.53 45.74 41.07 41.17 42.12 39.24 40.86 39.79 38.34 38.95 41.33 38.46 42.09 41.86 41.54 40.69 40.58
51.77 51.66 51.62 52.26 52.15 51.78 50.96 51.34 51.50 51.15 51.22 51.63 51.27 50.73 49.99 50.92 53.62 53.43 54.59 54.00 50.60 37.28 24.73 36.53 41.45 41.09 41.56 42.45 42.60 43.65 44.25 46.93 46.77 42.80 43.47 42.28 45.73 42.86 41.13 41.82 41.44 42.70 39.67 39.86 40.80 39.09 34.06
51.46 51.35 51.46 51.88 51.87 51.54 50.79 50.48 51.16 51.49 50.64 51.39 50.99 49.94 50.72 53.83 51.41 55.05 54.62 49.67 37.32 31.41 38.44 35.83 37.26 40.88 40.65 38.93 40.31 40.61 40.00 39.69 37.90 34.14 35.63 39.85 40.79 43.76 43.96 39.55 41.89 40.61 36.99 31.14 29.79 31.05 30.39
51.46 51.51 51.33 51.60 51.62 51.29 51.15 50.52 50.37 50.53 50.85 51.00 50.16 48.31 50.99 54.58 56.13 54.48 51.89 42.31 30.46 34.67 35.24 40.60 39.70 40.35 37.02 39.31 39.45 39.85 38.47 37.19 40.38 39.48 36.39 33.09 31.25 39.11 42.88 40.47 37.20 37.74 36.59 31.01 26.05 29.33 32.66
51.32 51.54 51.51 51.52 51.68 51.12 50.85 50.62 50.03 49.92 50.22 50.11 48.78 55.33 54.83 56.28 55.84 53.77 46.35 35.93 35.42 36.04 38.43 37.76 39.23 36.02 36.65 38.30 39.17 38.68 37.89 36.95 39.01 40.68 33.41 33.17 32.61 41.27 42.50 43.03 40.88 37.64 33.09 40.37 33.31 35.18 34.40
51.25 51.41 51.47 51.71 51.76 51.68 51.47 50.87 50.48 50.13 50.62 49.72 50.74 53.08 53.06 54.29 55.54 51.49 43.25 35.05 37.49 40.16 40.66 40.28 33.31 36.86 33.86 36.42 36.49 36.68 36.45 38.93 38.07 40.93 42.41 37.68 31.37 39.26 40.53 42.89 42.46 40.56 39.82 31.29 33.73 25.35 28.11
51.16 51.15 51.49 51.78 52.25 51.91 51.64 51.09 50.45 50.64 50.36 48.98 51.00 47.98 51.41 54.02 53.79 47.16 38.66 38.05 39.21 42.37 42.08 38.22 37.15 36.31 37.14 34.68 37.09 36.08 35.53 39.37 40.75 40.29 42.65 40.65 36.38 35.18 39.78 37.15 35.75 36.40 35.86 37.31 36.20 34.92 31.28
51.10 51.26 51.24 51.78 52.47 52.27 51.61 50.72 50.35 50.06 49.53 48.23 48.61 43.13 52.76 53.05 43.04 44.81 38.62 38.10 39.71 40.76 43.26 40.52 41.37 39.86 37.66 37.84 35.54 36.30 35.75 38.28 43.01 42.42 37.73 41.28 36.94 31.96 35.47 40.64 42.74 38.91 37.41 35.39 31.16 31.39 36.03
50.87 50.48 51.12 51.83 52.13 52.23 51.45 50.52 50.39 50.15 49.90 46.63 43.36 44.44 53.05 50.25 38.43 37.12 39.25 38.51 40.09 39.95 39.96 39.21 38.25 40.54 41.30 38.07 32.98 36.95 37.96 42.33 42.53 41.00 38.64 40.65 36.17 30.38 32.92 38.20 40.95 37.51 38.94 37.13 38.64 36.63 33.84
50.61 50.91 51.44 52.03 52.24 51.82 51.16 50.38 50.26 50.05 50.05 47.32 43.28 39.06 45.90 46.99 45.28 37.98 37.05 36.71 37.32 41.65 41.14 41.31 39.75 41.04 39.31 36.83 39.27 34.77 36.45 39.84 41.83 41.53 43.05 41.29 37.34 33.35 29.65 33.47 37.25 34.47 36.51 38.79 37.64 33.63 34.27
50.83 51.27 51.65 51.94 51.83 51.20 50.17 49.71 49.89 49.71 49.70 47.38 42.96 39.91 41.72 39.38 41.38 40.05 39.84 37.22 35.89 35.50 41.11 42.08 38.70 38.80 36.70 33.27 36.22 35.62 38.20 38.65 39.98 41.18 40.89 38.61 34.12 35.50 36.84 37.86 37.84 36.67 36.05 37.02 36.45 37.62 34.12
50.97 51.20 51.48 51.50 50.40 49.69 48.86 48.71 49.09 49.54 49.32 47.62 40.64 38.57 41.92 40.74 40.91 38.73 38.33 37.17 35.92 37.08 38.12 37.21 36.63 38.47 37.53 34.17 35.31 33.39 36.32 36.31 35.26 39.06 37.78 38.25 33.68 36.41 33.78 37.23 37.54 34.99 37.40 37.59 37.60 38.28 38.25
51.18 51.36 51.20 50.41 49.23 48.88 48.55 48.35 48.81 49.47 49.39 43.78 42.96 41.21 37.78 38.50 38.68 35.63 37.88 37.62 37.69 39.65 40.11 41.25 39.45 37.07 37.52 39.89 41.76 43.00 42.27 41.40 40.10 36.21 35.97 35.44 34.36 33.59 30.17 36.36 36.13 31.95 36.43 37.71 38.56 40.34 40.06
51.20 51.26 50.82 49.66 48.69 48.60 47.56 48.24 48.50 48.60 49.34 46.18 43.82 42.22 36.49 34.30 36.61 35.83 36.43 37.40 36.23 38.85 37.94 40.74 41.75 38.59 43.55 47.59 46.62 45.33 43.81 42.69 42.44 40.92 38.66 35.26 35.20 34.09 31.61 33.59 23.90 36.55 41.47 41.80 40.36 41.43 42.70
51.19 50.45 49.83 48.91 47.91 48.11 47.87 47.87 48.00 48.58 48.89 48.13 45.87 41.86 37.86 33.60 36.72 37.13 37.00 36.13 37.34 38.64 39.79 41.36 42.63 45.53 48.24 44.67 39.19 37.69 39.05 39.51 39.99 39.90 37.58 36.85 35.38 32.80 29.47 30.08 34.29 37.11 40.23 39.66 39.45 39.85 45.10
50.17 49.41 48.59 48.04 47.98 47.84 48.37 47.79 47.52 48.45 48.82 49.50 49.04 46.85 40.47 35.55 36.97 39.50 35.78 37.97 34.45 34.66 38.55 41.46 45.61 48.54 46.72 39.71 36.25 31.23 31.29 33.42 33.69 35.25 37.69 36.41 36.38 33.30 31.56 26.94 24.64 37.08 42.50 45.40 43.83 35.81 46.81
48.76 47.84 47.40 47.13 47.03 47.11 47.05 47.25 47.63 47.91 48.09 48.46 48.70 50.87 42.76 36.49 39.02 40.87 36.58 35.40 37.78 36.77 34.68 37.64 39.95 42.79 45.92 38.19 35.55 32.47 31.79 36.37 31.65 30.93 33.30 32.76 32.19 28.78 30.00 29.29 32.18 39.85 42.04 44.20 32.42 39.35 47.99
46.79 46.45 45.80 45.96 46.06 45.99 46.31 46.42 46.70 47.27 48.14 48.03 47.37 51.30 45.11 39.42 39.86 42.59 43.21 38.71 38.93 37.53 33.57 38.77 38.91 41.74 40.82 37.26 35.48 35.61 34.85 35.48 33.29 35.73 32.40 32.22 31.48 32.76 32.52 29.46 27.77 40.38 38.46 35.91 43.72 48.19 48.10
45.80 44.53 44.76 44.78 44.82 45.52 45.84 45.90 46.37 46.41 47.15 47.92 44.77 49.78 49.55 42.23 40.86 46.20 45.89 46.48 44.76 43.31 39.63 38.48 39.35 39.00 40.40 38.18 37.48 38.50 36.29 36.45 35.40 32.35 36.32 32.58 32.40 32.03 32.22 32.94 38.92 39.32 35.79 40.29 44.30 45.69 47.12

GFSGBSN_sfc_wetblb_033.txt.gz
Wetbulb
52.99 53.01 53.03 52.91 52.93 52.79 52.51 52.42 52.51 52.59 52.32 52.13 52.74 52.82 53.02 53.14 53.32 53.65 54.02 54.60 55.07 55.39 55.60 55.74 55.79 56.21 55.46 51.95 47.81 53.65 55.68 59.26 56.18 54.52 51.38 49.66 49.83 50.88 48.28 49.62 51.15 52.58 54.17 55.37 56.72 56.76 57.34
52.50 52.58 52.88 52.80 52.74 52.50 52.27 52.54 52.54 52.42 52.64 52.08 52.12 52.55 52.60 52.91 53.14 53.27 53.74 54.35 54.67 54.75 55.12 55.88 56.17 55.41 54.71 47.76 53.42 55.09 55.24 55.29 54.71 53.43 52.25 51.31 49.25 51.80 50.07 49.91 49.49 51.53 51.60 52.56 54.46 54.82 56.20
52.59 52.68 52.80 52.51 52.50 52.42 52.29 52.40 52.38 52.46 52.40 52.44 52.38 52.23 52.18 52.66 52.93 53.09 53.23 54.11 54.11 54.13 55.20 56.35 56.94 55.87 52.63 48.32 54.57 55.80 55.91 54.37 54.92 53.88 50.99 53.00 51.81 49.53 50.75 49.32 51.91 50.52 47.73 50.14 51.88 53.09 53.55
52.07 52.19 52.10 52.01 51.79 51.87 51.84 51.97 52.08 52.01 52.10 52.18 52.43 52.53 52.32 52.45 52.84 52.92 53.29 53.84 53.84 54.23 55.63 56.44 55.46 56.85 50.52 53.58 55.75 54.14 54.49 53.42 54.97 54.71 53.76 53.69 53.43 50.32 48.14 49.25 48.06 47.57 47.92 43.99 49.55 51.91 53.02
51.77 51.74 51.79 51.78 51.68 51.59 51.79 51.96 51.96 51.99 51.99 51.99 52.22 52.61 52.04 52.34 52.57 52.67 52.94 53.47 53.68 55.25 55.95 55.95 55.76 54.42 48.49 55.01 50.89 52.57 53.91 51.41 52.95 53.82 53.71 53.38 51.91 48.50 48.21 43.20 41.94 44.32 41.73 44.24 45.88 50.49 50.89
51.89 51.85 51.76 51.72 51.64 51.94 51.71 51.86 51.98 52.02 51.92 51.94 51.84 52.07 51.65 51.94 52.36 52.59 52.75 52.61 55.21 54.91 56.18 57.49 55.72 50.29 51.46 46.39 50.79 51.64 54.07 52.73 50.56 50.80 49.91 49.71 48.60 45.10 45.00 42.39 36.38 39.95 41.41 43.56 44.07 48.34 48.86
51.67 51.61 51.75 52.06 52.65 52.36 52.59 52.31 52.23 52.31 52.25 52.27 52.05 52.00 51.33 51.54 52.02 52.38 52.77 56.14 52.17 51.97 53.10 47.91 47.83 46.65 47.40 50.93 52.42 50.08 51.86 50.74 50.59 48.81 44.41 47.99 44.11 41.77 43.41 44.68 44.11 42.49 41.52 42.14 45.79 48.90 47.79
52.59 52.86 53.06 53.16 52.86 52.75 52.84 52.79 52.55 52.61 52.86 52.61 52.31 51.48 51.33 51.90 52.27 52.40 53.71 51.26 50.26 51.72 45.40 50.46 49.53 48.40 49.88 50.94 46.14 48.51 51.09 46.54 46.58 42.90 45.50 43.90 41.14 44.90 45.55 44.58 42.74 41.98 40.69 40.86 44.19 47.42 48.03
52.83 52.98 52.79 52.59 52.58 52.69 52.73 52.72 52.59 52.84 52.80 52.66 51.80 51.88 51.51 51.94 52.36 53.18 53.23 51.84 55.48 54.80 46.13 46.93 47.90 47.07 47.48 48.80 45.92 46.54 48.62 47.01 44.72 42.26 42.74 40.80 42.74 45.52 43.88 42.78 41.01 41.02 39.74 40.54 41.19 45.44 47.66
52.61 52.59 52.46 52.61 52.53 51.88 51.98 52.25 52.26 52.40 52.11 51.74 51.98 52.12 51.61 51.41 50.27 54.62 53.32 54.98 56.07 55.09 42.01 42.65 44.21 47.03 47.55 48.12 44.96 48.79 49.40 47.00 44.27 41.43 42.71 42.21 44.73 42.69 41.98 41.13 42.15 38.20 42.86 41.91 41.14 41.28 38.10
52.19 52.06 52.38 52.45 51.69 51.40 51.16 51.88 51.63 51.92 52.07 51.72 52.01 51.96 51.23 49.79 55.14 53.39 53.82 56.65 55.97 53.06 32.95 42.45 43.84 50.10 48.37 45.40 45.22 46.23 49.09 47.03 42.14 41.54 42.36 39.99 41.68 41.22 40.26 41.88 43.05 40.16 43.26 42.03 41.63 40.00 40.92
52.00 51.88 52.42 52.45 52.61 51.94 51.25 50.98 51.13 51.61 51.04 51.41 51.82 51.69 50.90 52.79 56.35 55.04 56.40 56.05 53.42 40.80 30.70 39.60 43.68 42.99 43.62 45.48 44.32 46.20 45.73 48.08 46.96 42.44 43.10 42.75 45.78 44.81 43.46 44.54 44.16 43.81 41.26 41.60 41.63 39.78 34.23
51.86 52.17 52.28 52.53 52.43 52.10 51.78 51.63 51.41 51.17 51.03 51.31 51.54 50.84 50.64 56.08 53.18 56.48 56.56 52.02 40.23 35.38 42.24 39.15 40.14 43.07 42.77 42.15 42.13 42.91 42.27 41.67 38.65 35.19 35.75 40.49 41.18 44.10 45.95 41.48 43.96 42.07 38.24 30.90 29.85 30.59 30.75
51.72 52.16 52.25 52.57 52.52 52.36 51.96 51.75 51.15 50.83 50.69 51.26 50.68 49.39 52.83 56.31 57.82 56.82 54.12 45.88 34.68 39.49 39.63 43.75 42.37 42.54 40.38 41.09 41.44 41.74 40.91 38.89 41.16 40.23 37.13 33.30 31.68 38.33 44.43 42.24 40.40 39.82 38.70 31.81 24.13 27.17 32.00
51.29 52.08 52.12 52.24 52.50 52.59 52.23 51.48 50.72 50.38 50.37 50.35 49.63 56.12 55.61 57.53 57.47 55.81 48.65 39.31 38.92 40.27 41.51 40.45 41.71 39.68 39.37 40.93 41.20 40.99 39.77 39.34 40.21 41.75 35.22 34.27 33.62 42.43 43.86 44.29 43.65 40.47 35.73 41.82 34.68 35.79 30.57
51.67 51.66 51.52 52.00 52.14 52.46 52.56 51.73 51.05 50.91 50.47 50.20 51.70 53.58 54.94 56.95 57.52 53.14 45.33 39.32 41.50 42.98 43.25 42.79 37.18 39.85 36.74 39.12 38.75 38.98 38.66 41.60 39.65 42.57 43.48 39.12 32.79 40.84 42.13 44.11 44.14 42.22 43.43 33.36 34.49 26.95 25.20
51.66 51.26 51.48 51.74 52.06 52.31 52.45 51.86 50.83 50.74 50.02 49.55 51.92 48.28 53.59 56.64 54.34 48.64 40.13 41.52 41.95 44.59 44.34 40.76 39.70 38.79 38.52 37.84 39.14 38.57 38.44 41.84 43.16 41.98 43.75 41.20 38.06 37.26 41.38 39.62 38.55 36.63 35.16 38.12 37.73 34.27 28.66
51.35 51.27 51.40 51.95 52.35 52.29 52.03 51.07 50.41 50.18 49.05 49.84 50.44 45.36 54.80 52.83 43.46 46.55 41.98 40.98 41.31 42.99 45.60 43.26 42.64 40.67 39.54 39.62 37.41 37.61 36.99 40.81 44.29 44.28 38.70 42.04 38.71 34.13 36.75 41.92 44.62 42.66 39.44 38.10 30.02 31.25 36.68
51.08 51.30 51.77 52.15 52.27 52.01 51.47 50.33 50.09 49.78 49.22 49.19 46.68 47.96 54.05 51.14 39.62 41.77 44.35 42.68 42.56 42.02 43.22 41.79 39.92 42.01 42.36 37.94 35.11 39.82 40.90 44.25 44.20 42.55 39.75 41.90 36.75 30.83 34.19 39.20 41.99 39.03 40.35 41.18 40.20 38.11 32.95
51.19 51.56 51.88 52.19 52.13 51.32 50.51 49.82 49.79 49.34 49.38 49.90 47.24 42.87 47.57 47.35 48.21 42.92 42.35 41.32 39.89 44.22 43.17 42.88 41.02 42.13 40.10 39.18 41.86 38.44 39.54 42.00 42.42 41.17 43.49 42.43 37.60 33.78 29.94 34.27 34.36 32.16 36.17 40.51 39.33 32.07 33.58
51.40 51.68 51.99 51.99 50.84 50.42 49.70 49.56 49.54 49.26 49.07 49.94 48.88 44.19 43.90 40.83 42.39 42.00 42.25 42.76 39.74 39.24 42.83 42.97 41.35 40.47 40.01 36.42 38.43 37.67 40.16 40.60 41.57 42.65 41.60 38.78 33.37 34.95 37.01 39.06 39.00 37.75 38.05 37.61 36.51 38.00 33.51
51.54 51.66 51.96 51.40 50.44 49.54 49.34 48.99 49.36 48.83 48.72 49.48 43.48 42.44 44.75 42.07 44.03 40.08 40.72 39.76 40.36 40.65 41.66 40.43 39.02 41.30 40.56 35.29 36.41 35.21 38.34 39.76 38.08 39.88 39.13 40.07 32.78 35.05 33.72 38.36 38.98 36.94 38.56 38.99 38.82 39.18 39.08
51.37 51.61 51.39 50.81 49.97 48.81 48.62 48.27 48.73 48.88 49.23 45.03 45.23 44.17 41.34 40.22 41.46 40.24 38.90 38.58 38.66 40.93 42.94 43.69 41.64 40.18 40.22 42.46 44.42 45.73 45.18 44.93 43.97 39.59 36.29 35.77 35.30 33.78 30.99 36.83 36.96 33.45 37.88 38.58 39.63 41.08 40.38
51.33 51.38 50.62 50.02 49.10 48.52 48.66 48.78 48.45 48.81 48.86 49.59 45.64 43.08 38.41 36.91 40.96 39.51 39.89 38.98 38.31 38.33 36.93 41.78 42.49 42.18 45.60 49.40 48.78 48.24 47.63 45.63 44.33 42.87 40.78 34.18 35.40 35.25 32.42 35.11 26.10 38.68 43.11 41.98 40.47 41.92 43.32
51.20 50.20 49.54 48.60 48.24 48.27 48.15 48.21 47.68 48.21 48.83 48.94 50.67 44.43 39.41 34.68 38.03 39.98 40.25 39.87 41.40 40.95 39.80 41.77 44.85 47.85 49.42 45.76 42.42 39.75 40.60 40.84 41.17 42.19 40.44 39.01 35.70 32.92 30.04 31.14 35.64 38.50 41.04 40.76 40.04 40.61 45.05
49.69 48.89 47.84 47.20 46.90 47.07 47.75 47.34 47.24 47.81 48.62 48.77 50.16 50.25 42.75 36.19 39.13 43.07 39.73 40.83 37.02 38.42 40.78 42.72 47.05 49.91 48.28 43.03 40.19 32.62 33.58 35.68 35.66 37.38 39.91 37.73 36.56 34.09 32.94 28.56 25.51 36.83 42.12 46.64 46.48 37.27 46.59
48.31 47.34 46.63 46.23 45.84 45.85 46.36 46.68 46.78 47.33 47.89 48.52 48.05 51.98 45.35 38.69 40.55 42.15 38.86 38.37 40.02 38.91 36.81 41.12 42.55 44.01 47.47 41.33 37.96 34.78 34.90 39.38 33.92 32.21 34.86 34.55 32.89 30.51 30.80 30.08 33.68 41.25 42.65 45.17 33.74 37.19 48.45
46.79 46.30 45.43 45.27 45.02 45.47 45.96 46.20 46.18 46.73 47.10 47.32 47.65 50.94 47.34 41.55 44.53 46.02 45.80 40.64 40.50 40.15 35.38 40.67 40.91 42.42 41.97 38.73 37.80 37.82 37.64 38.81 35.64 38.56 35.82 33.28 32.19 33.64 33.79 30.04 28.28 41.86 40.09 35.53 43.80 46.03 45.55
45.80 45.17 44.97 44.90 44.78 44.94 45.40 45.68 45.90 46.08 46.47 46.74 42.85 50.17 52.59 45.23 43.29 48.38 47.81 48.24 46.57 45.53 41.74 40.44 40.85 39.52 42.79 39.43 38.68 40.60 38.04 39.58 37.91 32.66 38.65 32.73 34.73 32.55 32.55 33.46 41.81 42.12 39.46 40.61 40.09 39.83 44.72

GFSGBSN_sfc_wetblb_036.txt.gz
Wetbulb
53.37 53.52 53.54 53.49 53.22 52.91 52.78 52.69 52.94 53.03 52.90 52.46 52.65 53.21 53.01 53.00 53.36 53.73 53.91 54.37 54.84 55.06 55.36 55.69 56.18 56.60 55.38 53.51 50.82 55.11 60.15 59.80 56.98 55.33 52.43 50.38 47.65 48.48 46.73 48.13 49.57 47.90 50.01 53.17 54.83 55.36 55.91
52.99 52.95 52.93 52.92 52.59 52.43 52.50 52.50 52.55 52.79 53.01 52.99 52.92 53.11 53.19 53.06 53.33 53.46 53.76 54.02 54.14 54.43 54.73 55.53 56.67 56.73 53.67 48.60 54.20 55.13 55.22 55.44 54.85 53.51 51.65 51.77 49.58 49.64 47.18 47.73 48.28 49.95 49.67 50.05 52.21 54.50 55.27
52.60 52.55 52.74 52.66 52.41 52.50 52.49 52.73 52.70 52.47 52.47 52.41 52.68 52.54 52.58 52.83 53.12 53.35 53.86 53.95 54.05 54.28 54.76 55.74 56.92 56.01 52.10 51.12 54.12 54.96 55.13 53.00 54.08 53.33 51.13 52.42 52.42 49.40 48.73 46.45 50.11 49.73 46.84 48.79 49.85 50.73 51.20
52.71 52.59 52.55 52.46 52.48 52.58 52.66 52.85 52.89 52.93 52.82 52.64 52.87 52.76 52.28 52.41 52.70 53.18 53.53 53.85 53.78 54.20 55.24 56.32 56.94 54.71 50.81 54.18 54.78 53.51 53.25 52.54 54.22 54.03 53.11 53.72 53.15 49.94 48.07 49.13 46.70 44.46 46.11 42.85 47.98 49.42 50.67
52.30 52.34 52.39 52.69 53.28 53.15 53.17 53.27 53.23 53.03 53.38 53.28 53.66 53.21 52.61 52.20 52.67 53.05 53.44 53.42 53.64 55.07 56.34 56.55 54.39 54.81 49.02 55.69 51.12 52.50 52.84 50.80 51.80 52.57 53.05 53.20 51.53 47.79 47.26 43.34 41.50 42.41 38.28 41.02 44.35 49.41 48.58
53.10 53.47 53.71 53.69 53.66 53.48 53.09 53.02 52.98 53.21 53.44 53.48 53.42 52.48 52.84 52.55 52.22 52.94 52.82 52.66 54.55 54.31 55.92 57.66 55.79 50.11 52.54 48.23 50.47 51.42 53.30 52.36 49.66 50.36 49.53 49.24 47.98 44.90 44.70 41.91 35.17 38.62 39.16 40.73 40.86 45.17 47.53
53.63 53.65 53.55 53.39 52.99 52.53 52.44 52.59 52.38 52.98 53.13 53.11 53.15 52.77 52.19 52.67 52.55 52.59 52.53 55.63 51.65 50.85 54.17 49.86 48.88 48.42 48.16 50.66 52.39 50.21 51.88 49.95 49.95 48.95 43.89 47.17 43.43 41.00 43.68 44.84 44.16 42.93 41.34 40.03 42.91 45.60 45.26
53.29 53.23 53.09 52.88 52.72 52.17 51.86 51.86 52.07 52.23 52.32 52.32 52.42 52.32 52.63 52.65 52.67 52.76 52.34 52.17 50.32 51.66 45.31 50.74 50.47 49.78 50.17 50.62 46.27 49.34 51.24 46.12 45.55 42.12 45.08 43.30 40.21 44.73 45.96 45.18 43.58 42.35 40.17 39.68 42.66 44.96 44.79
53.09 52.92 52.92 52.45 52.46 52.28 51.75 51.65 51.63 52.44 51.88 51.76 52.14 52.53 52.90 52.49 52.39 52.69 54.65 52.24 55.15 55.04 45.75 48.11 49.11 47.36 48.14 48.90 45.96 46.91 49.08 46.68 43.44 41.84 42.00 40.09 42.40 45.51 43.88 42.60 41.68 41.44 39.95 40.07 39.46 42.67 43.94
53.00 52.69 52.46 52.63 52.72 52.47 52.63 52.57 52.55 52.38 52.36 52.14 51.91 52.16 52.45 51.85 50.26 54.83 53.89 55.58 56.01 55.28 41.04 43.44 44.35 47.23 48.14 48.16 45.01 49.42 49.83 46.33 43.86 40.89 41.88 41.04 43.91 42.58 42.06 40.75 41.91 37.79 43.10 42.34 40.81 38.99 34.70
52.19 52.82 52.17 51.84 52.90 52.82 52.68 52.60 52.53 52.55 52.07 51.87 51.89 52.27 52.23 50.99 52.47 52.75 53.62 56.26 55.92 52.60 32.80 44.12 44.71 50.70 48.47 45.43 46.33 46.83 49.85 46.34 41.32 41.27 41.47 38.82 40.47 40.67 39.69 41.30 43.48 40.36 44.24 41.76 40.90 38.61 38.10
52.15 51.92 52.61 52.59 52.76 52.93 52.59 52.39 52.37 51.96 51.60 51.54 51.69 52.31 51.76 53.79 53.68 56.59 55.84 56.32 54.35 40.84 32.03 40.80 44.54 43.55 43.95 45.85 45.93 46.69 46.68 48.73 47.30 42.66 42.61 41.79 45.48 43.70 43.39 44.06 44.22 45.00 42.09 41.43 40.41 37.82 32.37
52.03 51.56 51.82 52.36 52.39 52.83 52.74 52.44 52.41 51.88 51.19 51.32 51.42 51.33 50.49 54.96 52.28 56.06 55.98 52.36 39.94 35.74 43.95 40.39 41.24 43.77 43.09 42.50 43.56 43.81 42.62 41.85 39.49 35.97 35.95 40.04 40.44 44.38 45.24 40.70 43.79 42.39 38.45 30.77 29.26 30.39 29.67
51.32 51.42 52.12 52.14 52.46 52.57 52.58 52.42 52.23 51.22 50.83 50.95 50.24 49.89 52.67 53.33 56.61 56.18 52.62 44.71 34.23 41.34 41.35 44.35 43.18 42.96 40.65 43.40 42.31 42.34 41.39 39.21 42.71 40.26 36.37 33.32 31.38 39.96 43.10 41.03 37.82 37.63 37.02 30.11 23.39 26.23 30.28
51.80 52.06 52.10 52.07 52.38 52.23 52.36 51.91 51.57 50.22 50.04 49.59 49.03 55.99 54.54 56.28 57.26 54.86 47.55 37.76 38.25 41.23 42.97 41.15 41.88 39.90 40.17 42.29 41.73 41.32 41.02 40.14 41.62 41.62 35.07 33.68 33.58 42.08 42.48 43.24 41.44 39.11 36.14 41.23 33.54 35.22 30.13
51.83 51.82 51.87 51.77 52.22 52.29 52.27 51.67 50.92 50.30 49.66 48.88 49.42 52.96 53.82 58.13 57.41 51.95 44.13 38.97 41.98 44.89 44.06 42.84 37.05 40.53 36.85 39.12 39.10 39.77 39.65 42.75 41.49 43.85 44.55 39.51 32.53 40.20 41.30 43.01 43.62 40.87 42.68 33.93 35.49 25.29 23.71
51.57 51.56 51.73 52.03 52.21 52.33 52.14 51.42 50.35 49.94 49.12 48.67 50.81 49.95 55.00 57.51 54.30 47.73 39.83 41.34 42.98 44.90 44.22 41.10 39.69 38.87 38.93 37.74 39.62 38.82 38.50 42.00 44.05 43.49 44.44 41.96 37.72 36.97 40.83 38.53 37.52 39.36 36.57 35.72 36.11 33.53 26.30
51.55 51.57 51.87 52.29 52.38 52.33 51.26 50.57 50.05 49.55 48.49 49.28 50.75 44.72 55.41 54.20 43.17 45.55 41.94 43.63 43.72 43.53 45.07 44.17 44.00 41.07 39.15 39.69 38.23 37.94 37.31 41.25 45.03 43.61 38.31 42.22 37.96 33.14 35.60 41.49 43.02 41.01 39.34 37.20 31.64 29.93 33.42
51.43 51.65 51.94 52.11 52.22 51.43 50.69 50.05 49.61 49.58 48.72 47.14 47.35 48.13 54.76 53.28 41.49 41.82 44.48 44.31 44.84 42.78 43.23 42.79 41.06 42.82 43.18 39.51 35.66 39.18 40.39 44.61 44.62 41.89 38.95 40.43 35.75 29.81 32.14 38.04 40.93 38.19 39.05 37.32 36.86 37.86 32.05
51.38 51.82 52.07 52.17 52.05 50.99 50.17 49.96 49.45 49.47 48.65 48.08 48.36 42.98 48.64 48.79 48.43 44.02 41.32 40.76 41.62 45.53 43.49 43.73 42.55 43.33 41.18 39.74 41.96 38.53 39.50 43.22 43.63 42.28 43.60 41.88 36.37 32.49 28.25 32.17 35.12 32.70 35.82 38.43 37.61 32.82 33.49
51.62 51.81 51.97 52.15 51.61 50.73 49.83 49.52 49.31 48.95 48.63 49.45 49.29 44.95 46.06 41.06 42.41 43.12 43.13 41.66 40.41 39.72 44.57 44.41 41.89 41.63 40.37 37.08 38.25 37.27 40.51 41.21 43.17 43.93 40.89 38.82 33.99 35.58 36.02 37.23 37.34 36.22 35.03 36.85 35.82 37.27 33.35
51.35 51.69 51.97 51.53 50.85 50.14 49.45 49.66 49.54 48.87 48.18 49.15 43.51 41.95 43.34 41.74 43.98 42.97 42.00 40.49 39.05 41.00 41.11 39.62 39.66 41.07 41.52 38.49 39.14 37.37 39.86 40.50 40.34 42.95 40.46 41.06 32.55 35.26 33.65 37.05 37.44 35.27 37.94 37.21 37.57 38.17 37.61
51.18 51.61 51.24 50.54 49.66 48.96 49.37 49.43 49.59 49.06 48.75 46.38 47.18 46.34 41.80 39.94 42.89 42.01 40.80 40.14 39.50 41.17 41.75 43.51 41.88 40.36 39.83 41.39 45.41 45.68 45.93 45.96 44.32 39.98 36.83 34.82 34.41 34.30 30.13 36.50 36.38 31.85 36.75 38.04 38.63 39.73 38.90
51.18 51.17 50.25 49.22 48.46 47.93 47.76 48.17 48.08 48.99 48.41 48.49 47.19 46.46 39.61 34.42 39.34 40.98 40.78 41.86 40.60 41.16 39.93 42.43 43.22 41.55 45.47 49.56 48.09 47.65 47.34 47.18 45.63 43.72 41.64 35.01 34.44 34.50 31.35 34.50 24.94 37.61 42.98 42.85 40.23 40.92 42.10
50.99 49.99 48.77 48.08 47.24 47.14 47.61 47.38 47.20 47.70 48.16 47.70 49.77 46.56 41.44 36.02 38.56 39.01 42.12 40.95 41.86 43.57 41.95 42.81 44.46 47.05 49.18 46.23 40.78 39.84 40.46 40.82 42.19 43.56 42.11 39.42 35.08 32.84 30.18 30.31 34.56 37.80 39.91 39.59 37.57 37.37 44.84
49.63 48.39 47.62 46.84 46.12 46.30 46.47 46.61 47.09 46.94 47.63 47.97 48.59 51.86 44.38 37.86 38.76 41.58 40.44 41.90 40.23 39.09 40.43 43.16 46.40 49.42 48.02 43.58 40.51 33.92 32.73 36.99 34.38 38.22 42.45 39.77 37.84 32.76 31.86 28.36 25.38 36.57 42.22 43.65 42.42 33.32 45.44
48.41 47.55 46.85 45.98 45.83 45.90 46.19 46.34 46.28 46.22 46.87 46.80 47.10 52.50 46.74 38.77 42.44 43.86 39.28 40.19 42.72 40.06 36.53 40.89 42.76 43.16 47.91 41.49 37.12 36.26 35.32 40.40 34.25 33.55 35.33 35.05 34.45 30.61 30.56 29.44 32.95 40.60 41.56 43.44 31.18 35.26 43.83
47.30 46.59 45.74 45.61 45.57 45.57 45.83 46.18 46.38 46.58 46.34 45.97 45.68 50.07 46.52 41.14 42.93 45.15 45.77 42.90 43.51 41.02 36.34 40.86 40.09 40.60 41.27 38.36 38.28 37.55 36.79 38.18 37.82 39.34 35.00 33.76 32.48 33.55 33.50 30.88 28.62 42.53 40.30 35.38 40.08 42.04 41.99
46.61 45.67 45.50 45.22 45.10 45.17 45.39 45.69 46.33 47.54 47.80 47.05 42.56 48.99 50.82 46.02 44.20 48.39 46.82 47.96 46.77 46.06 42.59 42.20 40.44 39.29 40.84 39.44 38.11 38.49 37.04 38.58 37.38 32.87 40.14 32.85 33.40 33.03 32.67 34.18 42.01 42.40 40.07 42.05 42.05 40.65 43.03